Data supplied by UK-AIR on 5/4/2008
All Data GMT hour ending 
Status: R =Ratified P=Provisional,P*=As supplied
,,Dumfries,,,,,,,,,,,,,,,,,,,,,,,
Date,time,"Carbon monoxide",status,unit,"Nitric oxide",status,unit,"Nitrogen dioxide",status,unit,"Nitrogen oxides as nitrogen dioxide",status,unit
 
01-01-2002,01:00,,,,71,R,ugm-3,40,R,ugm-3,149,R,ugm-3
01-01-2002,02:00,,,,74,R,ugm-3,42,R,ugm-3,155,R,ugm-3
01-01-2002,03:00,,,,58,R,ugm-3,32,R,ugm-3,120,R,ugm-3
01-01-2002,04:00,,,,71,R,ugm-3,34,R,ugm-3,143,R,ugm-3
01-01-2002,05:00,,,,53,R,ugm-3,29,R,ugm-3,109,R,ugm-3
01-01-2002,06:00,,,,61,R,ugm-3,29,R,ugm-3,122,R,ugm-3
01-01-2002,07:00,,,,49,R,ugm-3,25,R,ugm-3,99,R,ugm-3
01-01-2002,08:00,,,,36,R,ugm-3,23,R,ugm-3,78,R,ugm-3
01-01-2002,09:00,,,,68,R,ugm-3,31,R,ugm-3,134,R,ugm-3
01-01-2002,10:00,,,,63,R,ugm-3,25,R,ugm-3,120,R,ugm-3
01-01-2002,11:00,,,,55,R,ugm-3,29,R,ugm-3,113,R,ugm-3
01-01-2002,12:00,,,,65,R,ugm-3,34,R,ugm-3,134,R,ugm-3
01-01-2002,13:00,,,,88,R,ugm-3,46,R,ugm-3,180,R,ugm-3
01-01-2002,14:00,,,,60,R,ugm-3,38,R,ugm-3,130,R,ugm-3
01-01-2002,15:00,,,,80,R,ugm-3,40,R,ugm-3,162,R,ugm-3
01-01-2002,16:00,,,,81,R,ugm-3,42,R,ugm-3,166,R,ugm-3
01-01-2002,17:00,,,,118,R,ugm-3,52,R,ugm-3,231,R,ugm-3
01-01-2002,18:00,,,,99,R,ugm-3,34,R,ugm-3,185,R,ugm-3
01-01-2002,19:00,,,,133,R,ugm-3,46,R,ugm-3,248,R,ugm-3
01-01-2002,20:00,,,,93,R,ugm-3,38,R,ugm-3,180,R,ugm-3
01-01-2002,21:00,,,,73,R,ugm-3,34,R,ugm-3,145,R,ugm-3
01-01-2002,22:00,,,,84,R,ugm-3,36,R,ugm-3,164,R,ugm-3
01-01-2002,23:00,,,,96,R,ugm-3,38,R,ugm-3,185,R,ugm-3
01-01-2002,24:00,,,,75,R,ugm-3,32,R,ugm-3,147,R,ugm-3
02-01-2002,01:00,,,,69,R,ugm-3,34,R,ugm-3,139,R,ugm-3
02-01-2002,02:00,,,,45,R,ugm-3,34,R,ugm-3,103,R,ugm-3
02-01-2002,03:00,,,,34,R,ugm-3,27,R,ugm-3,78,R,ugm-3
02-01-2002,04:00,,,,20,R,ugm-3,29,R,ugm-3,59,R,ugm-3
02-01-2002,05:00,,,,30,R,ugm-3,31,R,ugm-3,76,R,ugm-3
02-01-2002,06:00,,,,18,R,ugm-3,23,R,ugm-3,50,R,ugm-3
02-01-2002,07:00,,,,23,R,ugm-3,29,R,ugm-3,63,R,ugm-3
02-01-2002,08:00,,,,44,R,ugm-3,38,R,ugm-3,105,R,ugm-3
02-01-2002,09:00,,,,61,R,ugm-3,46,R,ugm-3,139,R,ugm-3
02-01-2002,10:00,,,,63,R,ugm-3,46,R,ugm-3,141,R,ugm-3
02-01-2002,11:00,,,,99,R,ugm-3,65,R,ugm-3,216,R,ugm-3
02-01-2002,12:00,,,,143,R,ugm-3,71,R,ugm-3,288,R,ugm-3
02-01-2002,13:00,,,,113,R,ugm-3,69,R,ugm-3,241,R,ugm-3
02-01-2002,14:00,,,,145,R,ugm-3,86,R,ugm-3,308,R,ugm-3
02-01-2002,15:00,,,,210,R,ugm-3,94,R,ugm-3,414,R,ugm-3
02-01-2002,16:00,,,,305,R,ugm-3,107,R,ugm-3,573,R,ugm-3
02-01-2002,17:00,,,,341,R,ugm-3,103,R,ugm-3,625,R,ugm-3
02-01-2002,18:00,,,,331,R,ugm-3,97,R,ugm-3,604,R,ugm-3
02-01-2002,19:00,,,,278,R,ugm-3,88,R,ugm-3,512,R,ugm-3
02-01-2002,20:00,,,,325,R,ugm-3,118,R,ugm-3,615,R,ugm-3
02-01-2002,21:00,,,,151,R,ugm-3,74,R,ugm-3,306,R,ugm-3
02-01-2002,22:00,,,,71,R,ugm-3,55,R,ugm-3,164,R,ugm-3
02-01-2002,23:00,,,,63,R,ugm-3,52,R,ugm-3,147,R,ugm-3
02-01-2002,24:00,,,,86,R,ugm-3,57,R,ugm-3,189,R,ugm-3
03-01-2002,01:00,,,,11,R,ugm-3,32,R,ugm-3,50,R,ugm-3
03-01-2002,02:00,,,,1,R,ugm-3,17,R,ugm-3,19,R,ugm-3
03-01-2002,03:00,,,,3,R,ugm-3,17,R,ugm-3,21,R,ugm-3
03-01-2002,04:00,,,,3,R,ugm-3,19,R,ugm-3,23,R,ugm-3
03-01-2002,05:00,,,,3,R,ugm-3,21,R,ugm-3,25,R,ugm-3
03-01-2002,06:00,,,,3,R,ugm-3,25,R,ugm-3,29,R,ugm-3
03-01-2002,07:00,,,,13,R,ugm-3,42,R,ugm-3,61,R,ugm-3
03-01-2002,08:00,,,,18,R,ugm-3,44,R,ugm-3,71,R,ugm-3
03-01-2002,09:00,,,,40,R,ugm-3,57,R,ugm-3,118,R,ugm-3
03-01-2002,10:00,,,,113,R,ugm-3,78,R,ugm-3,250,R,ugm-3
03-01-2002,11:00,,,,54,R,ugm-3,59,R,ugm-3,141,R,ugm-3
03-01-2002,12:00,,,,55,R,ugm-3,63,R,ugm-3,147,R,ugm-3
03-01-2002,13:00,,,,109,R,ugm-3,80,R,ugm-3,246,R,ugm-3
03-01-2002,14:00,,,,105,R,ugm-3,80,R,ugm-3,241,R,ugm-3
03-01-2002,15:00,,,,45,R,ugm-3,55,R,ugm-3,124,R,ugm-3
03-01-2002,16:00,,,,38,R,ugm-3,50,R,ugm-3,107,R,ugm-3
03-01-2002,17:00,,,,31,R,ugm-3,52,R,ugm-3,99,R,ugm-3
03-01-2002,18:00,,,,31,R,ugm-3,53,R,ugm-3,101,R,ugm-3
03-01-2002,19:00,,,,40,R,ugm-3,55,R,ugm-3,117,R,ugm-3
03-01-2002,20:00,,,,28,R,ugm-3,52,R,ugm-3,94,R,ugm-3
03-01-2002,21:00,,,,45,R,ugm-3,55,R,ugm-3,124,R,ugm-3
03-01-2002,22:00,,,,19,R,ugm-3,44,R,ugm-3,73,R,ugm-3
03-01-2002,23:00,,,,9,R,ugm-3,40,R,ugm-3,53,R,ugm-3
03-01-2002,24:00,,,,8,R,ugm-3,42,R,ugm-3,53,R,ugm-3
04-01-2002,01:00,,,,10,R,ugm-3,44,R,ugm-3,59,R,ugm-3
04-01-2002,02:00,,,,25,R,ugm-3,46,R,ugm-3,84,R,ugm-3
04-01-2002,03:00,,,,50,R,ugm-3,50,R,ugm-3,126,R,ugm-3
04-01-2002,04:00,,,,40,R,ugm-3,44,R,ugm-3,105,R,ugm-3
04-01-2002,05:00,,,,16,R,ugm-3,48,R,ugm-3,73,R,ugm-3
04-01-2002,06:00,,,,44,R,ugm-3,50,R,ugm-3,117,R,ugm-3
04-01-2002,07:00,,,,81,R,ugm-3,59,R,ugm-3,183,R,ugm-3
04-01-2002,08:00,,,,190,R,ugm-3,90,R,ugm-3,380,R,ugm-3
04-01-2002,09:00,,,,256,R,ugm-3,111,R,ugm-3,502,R,ugm-3
04-01-2002,10:00,,,,286,R,ugm-3,117,R,ugm-3,554,R,ugm-3
04-01-2002,11:00,,,,324,R,ugm-3,134,R,ugm-3,628,R,ugm-3
04-01-2002,12:00,,,,280,R,ugm-3,134,R,ugm-3,562,R,ugm-3
04-01-2002,13:00,,,,270,R,ugm-3,122,R,ugm-3,535,R,ugm-3
04-01-2002,14:00,,,,158,R,ugm-3,130,R,ugm-3,371,R,ugm-3
04-01-2002,15:00,,,,170,R,ugm-3,97,R,ugm-3,357,R,ugm-3
04-01-2002,16:00,,,,173,R,ugm-3,113,R,ugm-3,376,R,ugm-3
04-01-2002,17:00,,,,249,R,ugm-3,109,R,ugm-3,489,R,ugm-3
04-01-2002,18:00,,,,216,R,ugm-3,99,R,ugm-3,430,R,ugm-3
04-01-2002,19:00,,,,140,R,ugm-3,80,R,ugm-3,294,R,ugm-3
04-01-2002,20:00,,,,159,R,ugm-3,76,R,ugm-3,319,R,ugm-3
04-01-2002,21:00,,,,159,R,ugm-3,78,R,ugm-3,321,R,ugm-3
04-01-2002,22:00,,,,126,R,ugm-3,74,R,ugm-3,267,R,ugm-3
04-01-2002,23:00,,,,138,R,ugm-3,76,R,ugm-3,287,R,ugm-3
04-01-2002,24:00,,,,118,R,ugm-3,76,R,ugm-3,256,R,ugm-3
05-01-2002,01:00,,,,89,R,ugm-3,52,R,ugm-3,187,R,ugm-3
05-01-2002,02:00,,,,64,R,ugm-3,50,R,ugm-3,147,R,ugm-3
05-01-2002,03:00,,,,46,R,ugm-3,48,R,ugm-3,118,R,ugm-3
05-01-2002,04:00,,,,48,R,ugm-3,50,R,ugm-3,122,R,ugm-3
05-01-2002,05:00,,,,31,R,ugm-3,46,R,ugm-3,94,R,ugm-3
05-01-2002,06:00,,,,41,R,ugm-3,44,R,ugm-3,107,R,ugm-3
05-01-2002,07:00,,,,43,R,ugm-3,46,R,ugm-3,111,R,ugm-3
05-01-2002,08:00,,,,101,R,ugm-3,67,R,ugm-3,222,R,ugm-3
05-01-2002,09:00,,,,176,R,ugm-3,86,R,ugm-3,355,R,ugm-3
05-01-2002,10:00,,,,229,R,ugm-3,99,R,ugm-3,449,R,ugm-3
05-01-2002,11:00,,,,215,R,ugm-3,76,R,ugm-3,405,R,ugm-3
05-01-2002,12:00,,,,219,R,ugm-3,88,R,ugm-3,422,R,ugm-3
05-01-2002,13:00,,,,345,R,ugm-3,96,R,ugm-3,623,R,ugm-3
05-01-2002,14:00,,,,271,R,ugm-3,90,R,ugm-3,504,R,ugm-3
05-01-2002,15:00,,,,236,R,ugm-3,94,R,ugm-3,455,R,ugm-3
05-01-2002,16:00,,,,263,R,ugm-3,88,R,ugm-3,489,R,ugm-3
05-01-2002,17:00,,,,323,R,ugm-3,120,R,ugm-3,613,R,ugm-3
05-01-2002,18:00,,,,194,R,ugm-3,92,R,ugm-3,388,R,ugm-3
05-01-2002,19:00,,,,126,R,ugm-3,59,R,ugm-3,252,R,ugm-3
05-01-2002,20:00,,,,103,R,ugm-3,50,R,ugm-3,206,R,ugm-3
05-01-2002,21:00,,,,116,R,ugm-3,61,R,ugm-3,239,R,ugm-3
05-01-2002,22:00,,,,115,R,ugm-3,67,R,ugm-3,243,R,ugm-3
05-01-2002,23:00,,,,118,R,ugm-3,57,R,ugm-3,237,R,ugm-3
05-01-2002,24:00,,,,78,R,ugm-3,44,R,ugm-3,162,R,ugm-3
06-01-2002,01:00,,,,61,R,ugm-3,40,R,ugm-3,134,R,ugm-3
06-01-2002,02:00,,,,45,R,ugm-3,34,R,ugm-3,103,R,ugm-3
06-01-2002,03:00,,,,56,R,ugm-3,38,R,ugm-3,124,R,ugm-3
06-01-2002,04:00,,,,56,R,ugm-3,32,R,ugm-3,118,R,ugm-3
06-01-2002,05:00,,,,30,R,ugm-3,29,R,ugm-3,74,R,ugm-3
06-01-2002,06:00,,,,21,R,ugm-3,27,R,ugm-3,59,R,ugm-3
06-01-2002,07:00,,,,31,R,ugm-3,29,R,ugm-3,76,R,ugm-3
06-01-2002,08:00,,,,38,R,ugm-3,32,R,ugm-3,90,R,ugm-3
06-01-2002,09:00,,,,38,R,ugm-3,34,R,ugm-3,92,R,ugm-3
06-01-2002,10:00,,,,48,R,ugm-3,38,R,ugm-3,111,R,ugm-3
06-01-2002,11:00,,,,71,R,ugm-3,46,R,ugm-3,155,R,ugm-3
06-01-2002,12:00,,,,36,R,ugm-3,36,R,ugm-3,92,R,ugm-3
06-01-2002,13:00,,,,41,R,ugm-3,34,R,ugm-3,97,R,ugm-3
06-01-2002,14:00,,,,70,R,ugm-3,42,R,ugm-3,149,R,ugm-3
06-01-2002,15:00,,,,84,R,ugm-3,55,R,ugm-3,183,R,ugm-3
06-01-2002,16:00,,,,111,R,ugm-3,55,R,ugm-3,225,R,ugm-3
06-01-2002,17:00,,,,78,R,ugm-3,50,R,ugm-3,168,R,ugm-3
06-01-2002,18:00,,,,159,R,ugm-3,80,R,ugm-3,323,R,ugm-3
06-01-2002,19:00,,,,143,R,ugm-3,52,R,ugm-3,269,R,ugm-3
06-01-2002,20:00,,,,93,R,ugm-3,46,R,ugm-3,187,R,ugm-3
06-01-2002,21:00,,,,103,R,ugm-3,42,R,ugm-3,199,R,ugm-3
06-01-2002,22:00,,,,104,R,ugm-3,44,R,ugm-3,202,R,ugm-3
06-01-2002,23:00,,,,68,R,ugm-3,46,R,ugm-3,149,R,ugm-3
06-01-2002,24:00,,,,3,R,ugm-3,10,R,ugm-3,13,R,ugm-3
07-01-2002,01:00,,,,3,R,ugm-3,6,R,ugm-3,10,R,ugm-3
07-01-2002,02:00,,,,3,R,ugm-3,11,R,ugm-3,15,R,ugm-3
07-01-2002,03:00,,,,1,R,ugm-3,11,R,ugm-3,13,R,ugm-3
07-01-2002,04:00,,,,1,R,ugm-3,13,R,ugm-3,15,R,ugm-3
07-01-2002,05:00,,,,3,R,ugm-3,13,R,ugm-3,17,R,ugm-3
07-01-2002,06:00,,,,4,R,ugm-3,13,R,ugm-3,19,R,ugm-3
07-01-2002,07:00,,,,19,R,ugm-3,27,R,ugm-3,55,R,ugm-3
07-01-2002,08:00,,,,81,R,ugm-3,52,R,ugm-3,176,R,ugm-3
07-01-2002,09:00,,,,245,R,ugm-3,99,R,ugm-3,474,R,ugm-3
07-01-2002,10:00,,,,186,R,ugm-3,97,R,ugm-3,382,R,ugm-3
07-01-2002,11:00,,,,133,R,ugm-3,74,R,ugm-3,277,R,ugm-3
07-01-2002,12:00,,,,73,R,ugm-3,55,R,ugm-3,166,R,ugm-3
07-01-2002,13:00,,,,55,R,ugm-3,50,R,ugm-3,134,R,ugm-3
07-01-2002,14:00,,,,101,R,ugm-3,61,R,ugm-3,216,R,ugm-3
07-01-2002,15:00,,,,139,R,ugm-3,67,R,ugm-3,279,R,ugm-3
07-01-2002,16:00,,,,48,R,ugm-3,50,R,ugm-3,122,R,ugm-3
07-01-2002,17:00,,,,76,R,ugm-3,61,R,ugm-3,178,R,ugm-3
07-01-2002,18:00,,,,158,R,ugm-3,67,R,ugm-3,308,R,ugm-3
07-01-2002,19:00,,,,145,R,ugm-3,63,R,ugm-3,285,R,ugm-3
07-01-2002,20:00,,,,96,R,ugm-3,59,R,ugm-3,206,R,ugm-3
07-01-2002,21:00,,,,125,R,ugm-3,59,R,ugm-3,250,R,ugm-3
07-01-2002,22:00,,,,100,R,ugm-3,53,R,ugm-3,206,R,ugm-3
07-01-2002,23:00,,,,24,R,ugm-3,48,R,ugm-3,84,R,ugm-3
07-01-2002,24:00,,,,33,R,ugm-3,52,R,ugm-3,101,R,ugm-3
08-01-2002,01:00,,,,23,R,ugm-3,44,R,ugm-3,78,R,ugm-3
08-01-2002,02:00,,,,14,R,ugm-3,38,R,ugm-3,59,R,ugm-3
08-01-2002,03:00,,,,23,R,ugm-3,38,R,ugm-3,73,R,ugm-3
08-01-2002,04:00,,,,23,R,ugm-3,44,R,ugm-3,78,R,ugm-3
08-01-2002,05:00,,,,30,R,ugm-3,44,R,ugm-3,90,R,ugm-3
08-01-2002,06:00,,,,59,R,ugm-3,46,R,ugm-3,136,R,ugm-3
08-01-2002,07:00,,,,94,R,ugm-3,52,R,ugm-3,195,R,ugm-3
08-01-2002,08:00,,,,250,R,ugm-3,84,R,ugm-3,466,R,ugm-3
08-01-2002,09:00,,,,320,R,ugm-3,96,R,ugm-3,584,R,ugm-3
08-01-2002,10:00,,,,308,R,ugm-3,124,R,ugm-3,594,R,ugm-3
08-01-2002,11:00,,,,245,R,ugm-3,101,R,ugm-3,476,R,ugm-3
08-01-2002,12:00,,,,205,R,ugm-3,80,R,ugm-3,393,R,ugm-3
08-01-2002,13:00,,,,205,R,ugm-3,88,R,ugm-3,401,R,ugm-3
08-01-2002,14:00,,,,129,R,ugm-3,99,R,ugm-3,296,R,ugm-3
08-01-2002,15:00,,,,138,R,ugm-3,76,R,ugm-3,287,R,ugm-3
08-01-2002,16:00,,,,145,R,ugm-3,65,R,ugm-3,287,R,ugm-3
08-01-2002,17:00,,,,149,R,ugm-3,76,R,ugm-3,304,R,ugm-3
08-01-2002,18:00,,,,294,R,ugm-3,99,R,ugm-3,548,R,ugm-3
08-01-2002,19:00,,,,158,R,ugm-3,67,R,ugm-3,308,R,ugm-3
08-01-2002,20:00,,,,223,R,ugm-3,94,R,ugm-3,434,R,ugm-3
08-01-2002,21:00,,,,114,R,ugm-3,55,R,ugm-3,229,R,ugm-3
08-01-2002,22:00,,,,115,R,ugm-3,55,R,ugm-3,231,R,ugm-3
08-01-2002,23:00,,,,113,R,ugm-3,61,R,ugm-3,233,R,ugm-3
08-01-2002,24:00,,,,80,R,ugm-3,44,R,ugm-3,166,R,ugm-3
09-01-2002,01:00,,,,40,R,ugm-3,32,R,ugm-3,94,R,ugm-3
09-01-2002,02:00,,,,31,R,ugm-3,32,R,ugm-3,80,R,ugm-3
09-01-2002,03:00,,,,34,R,ugm-3,34,R,ugm-3,86,R,ugm-3
09-01-2002,04:00,,,,25,R,ugm-3,50,R,ugm-3,88,R,ugm-3
09-01-2002,05:00,,,,25,R,ugm-3,50,R,ugm-3,88,R,ugm-3
09-01-2002,06:00,,,,10,R,ugm-3,48,R,ugm-3,63,R,ugm-3
09-01-2002,07:00,,,,21,R,ugm-3,40,R,ugm-3,73,R,ugm-3
09-01-2002,08:00,,,,76,R,ugm-3,59,R,ugm-3,176,R,ugm-3
09-01-2002,09:00,,,,118,R,ugm-3,82,R,ugm-3,262,R,ugm-3
09-01-2002,10:00,,,,133,R,ugm-3,76,R,ugm-3,279,R,ugm-3
09-01-2002,11:00,,,,136,R,ugm-3,74,R,ugm-3,283,R,ugm-3
09-01-2002,12:00,,,,81,R,ugm-3,65,R,ugm-3,189,R,ugm-3
09-01-2002,13:00,,,,86,R,ugm-3,57,R,ugm-3,189,R,ugm-3
09-01-2002,14:00,,,,69,R,ugm-3,61,R,ugm-3,166,R,ugm-3
09-01-2002,15:00,,,,54,R,ugm-3,46,R,ugm-3,128,R,ugm-3
09-01-2002,16:00,,,,158,R,ugm-3,94,R,ugm-3,334,R,ugm-3
09-01-2002,17:00,,,,171,R,ugm-3,88,R,ugm-3,350,R,ugm-3
09-01-2002,18:00,,,,270,R,ugm-3,94,R,ugm-3,506,R,ugm-3
09-01-2002,19:00,,,,125,R,ugm-3,59,R,ugm-3,250,R,ugm-3
09-01-2002,20:00,,,,56,R,ugm-3,50,R,ugm-3,136,R,ugm-3
09-01-2002,21:00,,,,28,R,ugm-3,42,R,ugm-3,84,R,ugm-3
09-01-2002,22:00,,,,38,R,ugm-3,42,R,ugm-3,99,R,ugm-3
09-01-2002,23:00,,,,23,R,ugm-3,38,R,ugm-3,73,R,ugm-3
09-01-2002,24:00,,,,23,R,ugm-3,40,R,ugm-3,74,R,ugm-3
10-01-2002,01:00,,,,15,R,ugm-3,38,R,ugm-3,61,R,ugm-3
10-01-2002,02:00,,,,11,R,ugm-3,38,R,ugm-3,55,R,ugm-3
10-01-2002,03:00,,,,30,R,ugm-3,34,R,ugm-3,80,R,ugm-3
10-01-2002,04:00,,,,16,R,ugm-3,34,R,ugm-3,59,R,ugm-3
10-01-2002,05:00,,,,16,R,ugm-3,34,R,ugm-3,59,R,ugm-3
10-01-2002,06:00,,,,26,R,ugm-3,40,R,ugm-3,80,R,ugm-3
10-01-2002,07:00,,,,79,R,ugm-3,44,R,ugm-3,164,R,ugm-3
10-01-2002,08:00,,,,188,R,ugm-3,69,R,ugm-3,355,R,ugm-3
10-01-2002,09:00,,,,280,R,ugm-3,92,R,ugm-3,520,R,ugm-3
10-01-2002,10:00,,,,159,R,ugm-3,69,R,ugm-3,311,R,ugm-3
10-01-2002,11:00,,,,190,R,ugm-3,78,R,ugm-3,369,R,ugm-3
10-01-2002,12:00,,,,205,R,ugm-3,115,R,ugm-3,428,R,ugm-3
10-01-2002,13:00,,,,118,R,ugm-3,63,R,ugm-3,243,R,ugm-3
10-01-2002,14:00,,,,100,R,ugm-3,57,R,ugm-3,210,R,ugm-3
10-01-2002,15:00,,,,220,R,ugm-3,88,R,ugm-3,424,R,ugm-3
10-01-2002,16:00,,,,253,R,ugm-3,92,R,ugm-3,478,R,ugm-3
10-01-2002,17:00,,,,55,R,ugm-3,42,R,ugm-3,126,R,ugm-3
10-01-2002,18:00,,,,111,R,ugm-3,55,R,ugm-3,225,R,ugm-3
10-01-2002,19:00,,,,153,R,ugm-3,69,R,ugm-3,302,R,ugm-3
10-01-2002,20:00,,,,115,R,ugm-3,57,R,ugm-3,233,R,ugm-3
10-01-2002,21:00,,,,69,R,ugm-3,50,R,ugm-3,155,R,ugm-3
10-01-2002,22:00,,,,41,R,ugm-3,44,R,ugm-3,107,R,ugm-3
10-01-2002,23:00,,,,41,R,ugm-3,44,R,ugm-3,107,R,ugm-3
10-01-2002,24:00,,,,35,R,ugm-3,42,R,ugm-3,96,R,ugm-3
11-01-2002,01:00,,,,36,R,ugm-3,40,R,ugm-3,96,R,ugm-3
11-01-2002,02:00,,,,30,R,ugm-3,34,R,ugm-3,80,R,ugm-3
11-01-2002,03:00,,,,21,R,ugm-3,36,R,ugm-3,69,R,ugm-3
11-01-2002,04:00,,,,20,R,ugm-3,34,R,ugm-3,65,R,ugm-3
11-01-2002,05:00,,,,21,R,ugm-3,34,R,ugm-3,67,R,ugm-3
11-01-2002,06:00,,,,40,R,ugm-3,36,R,ugm-3,97,R,ugm-3
11-01-2002,07:00,,,,53,R,ugm-3,40,R,ugm-3,120,R,ugm-3
11-01-2002,08:00,,,,239,R,ugm-3,88,R,ugm-3,453,R,ugm-3
11-01-2002,09:00,,,,248,R,ugm-3,90,R,ugm-3,468,R,ugm-3
11-01-2002,10:00,,,,319,R,ugm-3,103,R,ugm-3,590,R,ugm-3
11-01-2002,11:00,,,,300,R,ugm-3,97,R,ugm-3,556,R,ugm-3
11-01-2002,12:00,,,,434,R,ugm-3,166,R,ugm-3,829,R,ugm-3
11-01-2002,13:00,,,,274,R,ugm-3,113,R,ugm-3,531,R,ugm-3
11-01-2002,14:00,,,,298,R,ugm-3,103,R,ugm-3,558,R,ugm-3
11-01-2002,15:00,,,,35,R,ugm-3,46,R,ugm-3,99,R,ugm-3
11-01-2002,16:00,,,,49,R,ugm-3,53,R,ugm-3,128,R,ugm-3
11-01-2002,17:00,,,,41,R,ugm-3,40,R,ugm-3,103,R,ugm-3
11-01-2002,18:00,,,,36,R,ugm-3,42,R,ugm-3,97,R,ugm-3
11-01-2002,19:00,,,,20,R,ugm-3,32,R,ugm-3,63,R,ugm-3
11-01-2002,20:00,,,,23,R,ugm-3,29,R,ugm-3,63,R,ugm-3
11-01-2002,21:00,,,,25,R,ugm-3,27,R,ugm-3,65,R,ugm-3
11-01-2002,22:00,,,,15,R,ugm-3,27,R,ugm-3,50,R,ugm-3
11-01-2002,23:00,,,,15,R,ugm-3,23,R,ugm-3,46,R,ugm-3
11-01-2002,24:00,,,,6,R,ugm-3,13,R,ugm-3,23,R,ugm-3
12-01-2002,01:00,,,,5,R,ugm-3,10,R,ugm-3,17,R,ugm-3
12-01-2002,02:00,0.1,R,mgm-3,3,R,ugm-3,11,R,ugm-3,15,R,ugm-3
12-01-2002,03:00,0.1,R,mgm-3,3,R,ugm-3,11,R,ugm-3,15,R,ugm-3
12-01-2002,04:00,0.2,R,mgm-3,5,R,ugm-3,15,R,ugm-3,23,R,ugm-3
12-01-2002,05:00,0.0,R,mgm-3,1,R,ugm-3,6,R,ugm-3,8,R,ugm-3
12-01-2002,06:00,0.0,R,mgm-3,3,R,ugm-3,8,R,ugm-3,11,R,ugm-3
12-01-2002,07:00,0.0,R,mgm-3,5,R,ugm-3,13,R,ugm-3,21,R,ugm-3
12-01-2002,08:00,0.1,R,mgm-3,9,R,ugm-3,15,R,ugm-3,29,R,ugm-3
12-01-2002,09:00,0.1,R,mgm-3,14,R,ugm-3,21,R,ugm-3,42,R,ugm-3
12-01-2002,10:00,0.2,R,mgm-3,19,R,ugm-3,25,R,ugm-3,53,R,ugm-3
12-01-2002,11:00,0.7,R,mgm-3,36,R,ugm-3,42,R,ugm-3,97,R,ugm-3
12-01-2002,12:00,0.3,R,mgm-3,16,R,ugm-3,23,R,ugm-3,48,R,ugm-3
12-01-2002,13:00,0.5,R,mgm-3,18,R,ugm-3,27,R,ugm-3,53,R,ugm-3
12-01-2002,14:00,0.3,R,mgm-3,16,R,ugm-3,31,R,ugm-3,55,R,ugm-3
12-01-2002,15:00,0.6,R,mgm-3,20,R,ugm-3,34,R,ugm-3,65,R,ugm-3
12-01-2002,16:00,0.5,R,mgm-3,16,R,ugm-3,34,R,ugm-3,59,R,ugm-3
12-01-2002,17:00,0.6,R,mgm-3,21,R,ugm-3,40,R,ugm-3,73,R,ugm-3
12-01-2002,18:00,0.7,R,mgm-3,28,R,ugm-3,46,R,ugm-3,88,R,ugm-3
12-01-2002,19:00,0.2,R,mgm-3,9,R,ugm-3,25,R,ugm-3,38,R,ugm-3
12-01-2002,20:00,0.3,R,mgm-3,10,R,ugm-3,25,R,ugm-3,40,R,ugm-3
12-01-2002,21:00,0.3,R,mgm-3,15,R,ugm-3,29,R,ugm-3,52,R,ugm-3
12-01-2002,22:00,0.2,R,mgm-3,6,R,ugm-3,19,R,ugm-3,29,R,ugm-3
12-01-2002,23:00,0.2,R,mgm-3,10,R,ugm-3,19,R,ugm-3,34,R,ugm-3
12-01-2002,24:00,0.1,R,mgm-3,8,R,ugm-3,15,R,ugm-3,27,R,ugm-3
13-01-2002,01:00,0.1,R,mgm-3,1,R,ugm-3,8,R,ugm-3,10,R,ugm-3
13-01-2002,02:00,0.1,R,mgm-3,1,R,ugm-3,6,R,ugm-3,8,R,ugm-3
13-01-2002,03:00,0.1,R,mgm-3,4,R,ugm-3,4,R,ugm-3,10,R,ugm-3
13-01-2002,04:00,0.1,R,mgm-3,3,R,ugm-3,6,R,ugm-3,10,R,ugm-3
13-01-2002,05:00,0.1,R,mgm-3,1,R,ugm-3,4,R,ugm-3,6,R,ugm-3
13-01-2002,06:00,0.1,R,mgm-3,0,R,ugm-3,4,R,ugm-3,4,R,ugm-3
13-01-2002,07:00,0.1,R,mgm-3,3,R,ugm-3,8,R,ugm-3,11,R,ugm-3
13-01-2002,08:00,0.1,R,mgm-3,4,R,ugm-3,6,R,ugm-3,11,R,ugm-3
13-01-2002,09:00,0.1,R,mgm-3,4,R,ugm-3,6,R,ugm-3,11,R,ugm-3
13-01-2002,10:00,0.1,R,mgm-3,4,R,ugm-3,8,R,ugm-3,13,R,ugm-3
13-01-2002,11:00,0.2,R,mgm-3,6,R,ugm-3,11,R,ugm-3,21,R,ugm-3
13-01-2002,12:00,0.3,R,mgm-3,9,R,ugm-3,17,R,ugm-3,31,R,ugm-3
13-01-2002,13:00,0.5,R,mgm-3,14,R,ugm-3,23,R,ugm-3,44,R,ugm-3
13-01-2002,14:00,0.6,R,mgm-3,16,R,ugm-3,25,R,ugm-3,50,R,ugm-3
13-01-2002,15:00,0.7,R,mgm-3,26,R,ugm-3,40,R,ugm-3,80,R,ugm-3
13-01-2002,16:00,0.9,R,mgm-3,35,R,ugm-3,48,R,ugm-3,101,R,ugm-3
13-01-2002,17:00,0.8,R,mgm-3,41,R,ugm-3,50,R,ugm-3,113,R,ugm-3
13-01-2002,18:00,1.4,R,mgm-3,58,R,ugm-3,57,R,ugm-3,145,R,ugm-3
13-01-2002,19:00,1.2,R,mgm-3,64,R,ugm-3,55,R,ugm-3,153,R,ugm-3
13-01-2002,20:00,1.5,R,mgm-3,78,R,ugm-3,59,R,ugm-3,178,R,ugm-3
13-01-2002,21:00,0.8,R,mgm-3,25,R,ugm-3,44,R,ugm-3,82,R,ugm-3
13-01-2002,22:00,0.5,R,mgm-3,16,R,ugm-3,32,R,ugm-3,57,R,ugm-3
13-01-2002,23:00,0.5,R,mgm-3,18,R,ugm-3,36,R,ugm-3,63,R,ugm-3
13-01-2002,24:00,0.3,R,mgm-3,9,R,ugm-3,21,R,ugm-3,34,R,ugm-3
14-01-2002,01:00,0.1,R,mgm-3,3,R,ugm-3,6,R,ugm-3,10,R,ugm-3
14-01-2002,02:00,0.0,R,mgm-3,1,R,ugm-3,4,R,ugm-3,6,R,ugm-3
14-01-2002,03:00,0.0,R,mgm-3,1,R,ugm-3,2,R,ugm-3,4,R,ugm-3
14-01-2002,04:00,0.0,R,mgm-3,1,R,ugm-3,4,R,ugm-3,6,R,ugm-3
14-01-2002,05:00,0.0,R,mgm-3,3,R,ugm-3,6,R,ugm-3,10,R,ugm-3
14-01-2002,06:00,0.0,R,mgm-3,3,R,ugm-3,6,R,ugm-3,10,R,ugm-3
14-01-2002,07:00,0.1,R,mgm-3,6,R,ugm-3,10,R,ugm-3,19,R,ugm-3
14-01-2002,08:00,0.1,R,mgm-3,10,R,ugm-3,17,R,ugm-3,32,R,ugm-3
14-01-2002,09:00,0.2,R,mgm-3,13,R,ugm-3,19,R,ugm-3,38,R,ugm-3
14-01-2002,10:00,0.2,R,mgm-3,16,R,ugm-3,23,R,ugm-3,48,R,ugm-3
14-01-2002,11:00,0.2,R,mgm-3,14,R,ugm-3,19,R,ugm-3,40,R,ugm-3
14-01-2002,12:00,0.2,R,mgm-3,16,R,ugm-3,19,R,ugm-3,44,R,ugm-3
14-01-2002,13:00,0.3,R,mgm-3,20,R,ugm-3,29,R,ugm-3,59,R,ugm-3
14-01-2002,14:00,0.5,R,mgm-3,26,R,ugm-3,31,R,ugm-3,71,R,ugm-3
14-01-2002,15:00,0.6,R,mgm-3,34,R,ugm-3,42,R,ugm-3,94,R,ugm-3
14-01-2002,16:00,0.7,R,mgm-3,46,R,ugm-3,53,R,ugm-3,124,R,ugm-3
14-01-2002,17:00,0.5,R,mgm-3,23,R,ugm-3,34,R,ugm-3,69,R,ugm-3
14-01-2002,18:00,0.8,R,mgm-3,28,R,ugm-3,42,R,ugm-3,84,R,ugm-3
14-01-2002,19:00,0.5,R,mgm-3,56,R,ugm-3,46,R,ugm-3,132,R,ugm-3
14-01-2002,20:00,0.5,R,mgm-3,16,R,ugm-3,29,R,ugm-3,53,R,ugm-3
14-01-2002,21:00,0.3,R,mgm-3,13,R,ugm-3,29,R,ugm-3,48,R,ugm-3
14-01-2002,22:00,0.3,R,mgm-3,24,R,ugm-3,31,R,ugm-3,67,R,ugm-3
14-01-2002,23:00,0.3,R,mgm-3,19,R,ugm-3,32,R,ugm-3,61,R,ugm-3
14-01-2002,24:00,0.2,R,mgm-3,19,R,ugm-3,32,R,ugm-3,61,R,ugm-3
15-01-2002,01:00,0.1,R,mgm-3,4,R,ugm-3,15,R,ugm-3,21,R,ugm-3
15-01-2002,02:00,0.1,R,mgm-3,1,R,ugm-3,8,R,ugm-3,10,R,ugm-3
15-01-2002,03:00,0.1,R,mgm-3,1,R,ugm-3,8,R,ugm-3,10,R,ugm-3
15-01-2002,04:00,0.1,R,mgm-3,4,R,ugm-3,15,R,ugm-3,21,R,ugm-3
15-01-2002,05:00,0.0,R,mgm-3,1,R,ugm-3,6,R,ugm-3,8,R,ugm-3
15-01-2002,06:00,0.0,R,mgm-3,1,R,ugm-3,6,R,ugm-3,8,R,ugm-3
15-01-2002,07:00,0.1,R,mgm-3,10,R,ugm-3,19,R,ugm-3,34,R,ugm-3
15-01-2002,08:00,0.8,R,mgm-3,69,R,ugm-3,63,R,ugm-3,168,R,ugm-3
15-01-2002,09:00,1.4,R,mgm-3,110,R,ugm-3,88,R,ugm-3,256,R,ugm-3
15-01-2002,10:00,1.0,R,mgm-3,98,R,ugm-3,74,R,ugm-3,223,R,ugm-3
15-01-2002,11:00,0.9,R,mgm-3,79,R,ugm-3,74,R,ugm-3,195,R,ugm-3
15-01-2002,12:00,0.8,R,mgm-3,53,R,ugm-3,59,R,ugm-3,139,R,ugm-3
15-01-2002,13:00,0.8,R,mgm-3,59,R,ugm-3,55,R,ugm-3,145,R,ugm-3
15-01-2002,14:00,1.0,R,mgm-3,70,R,ugm-3,65,R,ugm-3,172,R,ugm-3
15-01-2002,15:00,,,,,,,,,,,,
15-01-2002,16:00,,,,,,,,,,,,
15-01-2002,17:00,0.6,R,mgm-3,41,R,ugm-3,48,R,ugm-3,111,R,ugm-3
15-01-2002,18:00,1.2,R,mgm-3,60,R,ugm-3,50,R,ugm-3,141,R,ugm-3
15-01-2002,19:00,0.5,R,mgm-3,26,R,ugm-3,40,R,ugm-3,80,R,ugm-3
15-01-2002,20:00,0.5,R,mgm-3,34,R,ugm-3,46,R,ugm-3,97,R,ugm-3
15-01-2002,21:00,0.3,R,mgm-3,20,R,ugm-3,32,R,ugm-3,63,R,ugm-3
15-01-2002,22:00,0.6,R,mgm-3,49,R,ugm-3,52,R,ugm-3,126,R,ugm-3
15-01-2002,23:00,0.2,R,mgm-3,10,R,ugm-3,15,R,ugm-3,31,R,ugm-3
15-01-2002,24:00,0.1,R,mgm-3,6,R,ugm-3,13,R,ugm-3,23,R,ugm-3
16-01-2002,01:00,0.1,R,mgm-3,4,R,ugm-3,6,R,ugm-3,11,R,ugm-3
16-01-2002,02:00,0.0,R,mgm-3,1,R,ugm-3,6,R,ugm-3,8,R,ugm-3
16-01-2002,03:00,0.0,R,mgm-3,0,R,ugm-3,4,R,ugm-3,4,R,ugm-3
16-01-2002,04:00,0.0,R,mgm-3,0,R,ugm-3,4,R,ugm-3,4,R,ugm-3
16-01-2002,05:00,0.1,R,mgm-3,1,R,ugm-3,6,R,ugm-3,8,R,ugm-3
16-01-2002,06:00,0.0,R,mgm-3,5,R,ugm-3,10,R,ugm-3,17,R,ugm-3
16-01-2002,07:00,0.1,R,mgm-3,9,R,ugm-3,19,R,ugm-3,32,R,ugm-3
16-01-2002,08:00,0.2,R,mgm-3,20,R,ugm-3,31,R,ugm-3,61,R,ugm-3
16-01-2002,09:00,0.6,R,mgm-3,54,R,ugm-3,57,R,ugm-3,139,R,ugm-3
16-01-2002,10:00,0.6,R,mgm-3,48,R,ugm-3,53,R,ugm-3,126,R,ugm-3
16-01-2002,11:00,0.6,R,mgm-3,48,R,ugm-3,55,R,ugm-3,128,R,ugm-3
16-01-2002,12:00,0.3,R,mgm-3,26,R,ugm-3,40,R,ugm-3,80,R,ugm-3
16-01-2002,13:00,0.5,R,mgm-3,35,R,ugm-3,36,R,ugm-3,90,R,ugm-3
16-01-2002,14:00,0.5,R,mgm-3,24,R,ugm-3,32,R,ugm-3,69,R,ugm-3
16-01-2002,15:00,0.8,R,mgm-3,38,R,ugm-3,48,R,ugm-3,105,R,ugm-3
16-01-2002,16:00,0.6,R,mgm-3,36,R,ugm-3,42,R,ugm-3,97,R,ugm-3
16-01-2002,17:00,0.6,R,mgm-3,24,R,ugm-3,40,R,ugm-3,76,R,ugm-3
16-01-2002,18:00,0.7,R,mgm-3,23,R,ugm-3,42,R,ugm-3,76,R,ugm-3
16-01-2002,19:00,0.3,R,mgm-3,15,R,ugm-3,25,R,ugm-3,48,R,ugm-3
16-01-2002,20:00,0.3,R,mgm-3,19,R,ugm-3,31,R,ugm-3,59,R,ugm-3
16-01-2002,21:00,0.2,R,mgm-3,18,R,ugm-3,31,R,ugm-3,57,R,ugm-3
16-01-2002,22:00,0.3,R,mgm-3,9,R,ugm-3,21,R,ugm-3,34,R,ugm-3
16-01-2002,23:00,0.5,R,mgm-3,11,R,ugm-3,25,R,ugm-3,42,R,ugm-3
16-01-2002,24:00,0.1,R,mgm-3,4,R,ugm-3,11,R,ugm-3,17,R,ugm-3
17-01-2002,01:00,0.1,R,mgm-3,1,R,ugm-3,6,R,ugm-3,8,R,ugm-3
17-01-2002,02:00,0.0,R,mgm-3,0,R,ugm-3,6,R,ugm-3,6,R,ugm-3
17-01-2002,03:00,0.0,R,mgm-3,0,R,ugm-3,4,R,ugm-3,4,R,ugm-3
17-01-2002,04:00,0.1,R,mgm-3,0,R,ugm-3,4,R,ugm-3,4,R,ugm-3
17-01-2002,05:00,0.1,R,mgm-3,1,R,ugm-3,6,R,ugm-3,8,R,ugm-3
17-01-2002,06:00,0.2,R,mgm-3,5,R,ugm-3,15,R,ugm-3,23,R,ugm-3
17-01-2002,07:00,0.3,R,mgm-3,21,R,ugm-3,36,R,ugm-3,69,R,ugm-3
17-01-2002,08:00,1.0,R,mgm-3,79,R,ugm-3,69,R,ugm-3,189,R,ugm-3
17-01-2002,09:00,1.7,R,mgm-3,153,R,ugm-3,113,R,ugm-3,346,R,ugm-3
17-01-2002,10:00,1.3,R,mgm-3,133,R,ugm-3,101,R,ugm-3,304,R,ugm-3
17-01-2002,11:00,0.8,R,mgm-3,75,R,ugm-3,69,R,ugm-3,183,R,ugm-3
17-01-2002,12:00,1.0,R,mgm-3,76,R,ugm-3,71,R,ugm-3,187,R,ugm-3
17-01-2002,13:00,0.8,R,mgm-3,78,R,ugm-3,71,R,ugm-3,189,R,ugm-3
17-01-2002,14:00,0.9,R,mgm-3,40,R,ugm-3,46,R,ugm-3,107,R,ugm-3
17-01-2002,15:00,0.7,R,mgm-3,46,R,ugm-3,50,R,ugm-3,120,R,ugm-3
17-01-2002,16:00,0.9,R,mgm-3,63,R,ugm-3,65,R,ugm-3,160,R,ugm-3
17-01-2002,17:00,1.3,R,mgm-3,64,R,ugm-3,65,R,ugm-3,162,R,ugm-3
17-01-2002,18:00,1.9,R,mgm-3,78,R,ugm-3,69,R,ugm-3,187,R,ugm-3
17-01-2002,19:00,0.7,R,mgm-3,34,R,ugm-3,46,R,ugm-3,97,R,ugm-3
17-01-2002,20:00,0.9,R,mgm-3,74,R,ugm-3,67,R,ugm-3,180,R,ugm-3
17-01-2002,21:00,1.2,R,mgm-3,54,R,ugm-3,61,R,ugm-3,143,R,ugm-3
17-01-2002,22:00,0.7,R,mgm-3,23,R,ugm-3,38,R,ugm-3,73,R,ugm-3
17-01-2002,23:00,0.5,R,mgm-3,24,R,ugm-3,29,R,ugm-3,65,R,ugm-3
17-01-2002,24:00,0.2,R,mgm-3,11,R,ugm-3,23,R,ugm-3,40,R,ugm-3
18-01-2002,01:00,0.2,R,mgm-3,8,R,ugm-3,19,R,ugm-3,31,R,ugm-3
18-01-2002,02:00,0.2,R,mgm-3,8,R,ugm-3,29,R,ugm-3,40,R,ugm-3
18-01-2002,03:00,0.2,R,mgm-3,10,R,ugm-3,19,R,ugm-3,34,R,ugm-3
18-01-2002,04:00,0.2,R,mgm-3,6,R,ugm-3,21,R,ugm-3,31,R,ugm-3
18-01-2002,05:00,0.2,R,mgm-3,10,R,ugm-3,27,R,ugm-3,42,R,ugm-3
18-01-2002,06:00,0.5,R,mgm-3,19,R,ugm-3,42,R,ugm-3,71,R,ugm-3
18-01-2002,07:00,0.6,R,mgm-3,54,R,ugm-3,55,R,ugm-3,138,R,ugm-3
18-01-2002,08:00,1.2,R,mgm-3,150,R,ugm-3,76,R,ugm-3,306,R,ugm-3
18-01-2002,09:00,2.6,R,mgm-3,309,R,ugm-3,107,R,ugm-3,579,R,ugm-3
18-01-2002,10:00,2.3,R,mgm-3,275,R,ugm-3,113,R,ugm-3,533,R,ugm-3